Погода в Большой Биче

Россия / Омская область     57°52′27″N   70°37′08″E
темп.,
°C
ветер,
м/с
пор.,
м/с
влажн.,
%
обл.,
%
осадки,
мм/ч
давл.,
гПа
погр.,
м
26 февраля, пт
пт2600:00−30сз239887 0.0 102446
03:00−32сз23980 0.0 102528
06:00−33зсз229813 0.0 102824
09:00−33зсз229760 0.0 102921
12:00−27з129156 0.0 1029267
15:00−23з128999 0.0 1029396
18:00−24юз1295100 0.0 103023
21:00−27ю129831 0.0 103019
27 февраля, сб
сб2700:00−28ю129943 0.0 103019
03:00−29ю229946 0.0 103019
06:00−30ю229932 0.0 103119
09:00−30ююв229817 0.0 103139
12:00−24ююв239422 0.0 1031244
15:00−21ююв359379 0.0 1030348
18:00−21юв269587 0.0 1029205
21:00−25юв389684 0.0 1029195
28 февраля, вс
вс2800:00−27юв389775 0.0 1028185
03:00−28вюв499547 0.0 1026231
06:00−28вюв4119570 0.0 1025254
09:00−26вюв4996100 0.0 1022273
12:00−22вюв4996100 0.0 1021335
15:00−18вюв41094100 0.1 1019441
18:00−17вюв4994100 0.4 1017506
21:00−17вюв41095100 0.5 1016563
1 марта, пн
пн100:00−17в4895100 1.0 1015490
03:00−17в3796100 0.4 1013395
06:00−17св2697100 0.7 1013279
09:00−18св259799 0.3 1013240
12:00−15ссв229099 0.4 1014375
15:00−13с2389100 0.1 1014509
18:00−14с1394100 0.2 1014195
21:00−16ссз119798 0.1 101420
2 марта, вт
вт200:00−18сз129893 0.1 101520
03:00−19зсз229881 0.1 101420
06:00−21зсз229984 0.1 101520
09:00−23з129999 0.0 101520
12:00−17зюз229193 0.0 1014245
15:00−14юз249099 0.0 1013412
18:00−14ююз2595100 0.1 1012167
21:00−19ю369871 0.0 1012122